TimeMST,TemperatureF,Dew PointF,Humidity,Sea Level PressureIn,VisibilityMPH,Wind Direction,Wind SpeedMPH,Gust SpeedMPH,PrecipitationIn,Events,Conditions,WindDirDegrees,DateUTC
12:53 AM,28.9,21.0,72,29.34,10.0,ENE,9.2,-,N/A,,Clear,70,2013-01-11 07:53:00
1:53 AM,23.0,16.0,74,29.35,10.0,NNE,10.4,-,N/A,,Clear,20,2013-01-11 08:53:00
2:53 AM,21.9,16.0,78,29.36,10.0,North,19.6,25.3,N/A,,Clear,10,2013-01-11 09:53:00
3:53 AM,19.0,12.0,74,29.37,10.0,North,25.3,35.7,N/A,,Scattered Clouds,10,2013-01-11 10:53:00
4:21 AM,17.6,10.4,73,29.34,10.0,North,21.9,38.0,N/A,,Overcast,360,2013-01-11 11:21:00
4:53 AM,17.1,10.0,74,29.42,10.0,North,25.3,35.7,N/A,,Overcast,10,2013-01-11 11:53:00
5:27 AM,15.8,8.6,73,29.35,2.0,North,29.9,38.0,0.00,Snow,Light Snow,10,2013-01-11 12:27:00
5:42 AM,14.0,8.6,79,29.33,1.5,North,29.9,41.4,0.00,Snow,Light Snow,10,2013-01-11 12:42:00
5:53 AM,12.9,8.1,81,29.46,1.5,NNE,29.9,39.1,0.00,Snow,Light Snow,20,2013-01-11 12:53:00
6:30 AM,12.2,8.6,85,29.37,0.8,NNE,29.9,36.8,0.00,Snow,Light Snow,20,2013-01-11 13:30:00
6:53 AM,12.0,7.0,80,29.48,0.8,North,27.6,40.3,0.00,Snow,Light Snow,10,2013-01-11 13:53:00
6:56 AM,12.2,6.8,79,29.37,1.0,North,28.8,40.3,0.00,Snow,Light Snow,10,2013-01-11 13:56:00
7:13 AM,12.2,6.8,79,29.40,3.0,North,24.2,35.7,0.00,Snow,Light Snow,10,2013-01-11 14:13:00
7:32 AM,10.4,5.0,79,29.42,5.0,North,25.3,40.3,0.00,Snow,Light Snow,360,2013-01-11 14:32:00
7:43 AM,10.4,5.0,79,29.43,2.5,North,25.3,35.7,0.00,Snow,Light Snow,360,2013-01-11 14:43:00
7:53 AM,10.9,5.0,77,29.55,2.5,North,25.3,32.2,0.00,Snow,Light Snow,10,2013-01-11 14:53:00
8:03 AM,10.4,3.2,73,29.45,1.2,North,26.5,36.8,0.00,Snow,Light Snow,10,2013-01-11 15:03:00
8:21 AM,10.4,3.2,73,29.46,0.8,NNE,25.3,36.8,0.00,Snow,Light Snow,20,2013-01-11 15:21:00
8:39 AM,10.4,3.2,73,29.48,0.8,NNE,20.7,27.6,0.01,Snow,Light Snow,30,2013-01-11 15:39:00
8:53 AM,10.0,3.9,76,29.62,0.8,NNE,18.4,31.1,0.01,Snow,Light Snow,30,2013-01-11 15:53:00
9:20 AM,10.4,5.0,79,29.52,1.0,NNE,12.7,-,0.01,Snow,Light Snow,30,2013-01-11 16:20:00
9:32 AM,10.4,5.0,79,29.54,0.8,NNE,18.4,25.3,0.02,Snow,Light Snow,30,2013-01-11 16:32:00
9:45 AM,10.4,5.0,79,29.54,0.2,NE,20.7,33.4,0.02,Snow,Heavy Snow,40,2013-01-11 16:45:00
9:53 AM,9.0,3.9,80,29.66,0.2,NE,17.3,27.6,0.02,Snow,Heavy Snow,40,2013-01-11 16:53:00
10:28 AM,10.4,3.2,73,29.57,0.5,NNE,23.0,29.9,0.02,Snow,Snow,20,2013-01-11 17:28:00
10:53 AM,10.0,3.9,76,29.70,0.8,NE,13.8,23.0,0.02,Snow,Light Snow,40,2013-01-11 17:53:00
11:28 AM,10.4,5.0,79,29.59,1.0,ENE,9.2,-,0.00,Snow,Light Snow,60,2013-01-11 18:28:00
11:37 AM,10.4,5.0,79,29.59,0.5,East,9.2,-,N/A,Snow,Snow,80,2013-01-11 18:37:00
11:50 AM,10.4,5.0,79,29.59,0.5,NE,6.9,-,0.01,Snow,Snow,50,2013-01-11 18:50:00
11:53 AM,10.9,5.0,77,29.72,0.8,NE,6.9,-,0.01,Snow,Light Snow,50,2013-01-11 18:53:00
12:15 PM,10.4,3.2,73,29.59,1.8,NE,12.7,-,0.00,Snow,Light Snow,50,2013-01-11 19:15:00
12:19 PM,10.4,3.2,73,29.59,2.0,ENE,15.0,-,N/A,Snow,Light Snow,60,2013-01-11 19:19:00
12:29 PM,10.4,1.4,67,29.59,5.0,NNE,18.4,24.2,N/A,Snow,Light Snow,30,2013-01-11 19:29:00
12:36 PM,10.4,1.4,67,29.59,5.0,NE,23.0,29.9,0.00,Snow,Light Snow,40,2013-01-11 19:36:00
12:53 PM,8.6,-0.4,67,29.60,8.0,NE,20.7,28.8,N/A,,Overcast,40,2013-01-11 19:53:00
1:53 PM,8.1,-2.0,64,29.77,10.0,NNE,24.2,34.5,0.00,,Overcast,30,2013-01-11 20:53:00
2:53 PM,8.1,-2.0,64,29.82,10.0,NNE,24.2,32.2,N/A,,Overcast,20,2013-01-11 21:53:00
3:53 PM,7.0,-2.9,64,29.88,10.0,NNE,23.0,32.2,N/A,,Overcast,20,2013-01-11 22:53:00
4:53 PM,6.1,-4.0,63,29.91,10.0,North,23.0,31.1,N/A,,Overcast,10,2013-01-11 23:53:00
5:53 PM,5.0,-5.1,63,29.98,10.0,NNE,25.3,33.4,N/A,,Overcast,20,2013-01-12 00:53:00
6:53 PM,5.0,-5.1,63,30.02,10.0,NNE,20.7,33.4,N/A,,Overcast,30,2013-01-12 01:53:00
7:53 PM,5.0,-5.1,63,30.05,10.0,NNE,15.0,23.0,N/A,,Overcast,30,2013-01-12 02:53:00
8:53 PM,3.9,-4.0,70,30.09,6.0,NNE,11.5,-,0.00,,Haze,30,2013-01-12 03:53:00
9:53 PM,1.9,-5.1,72,30.12,8.0,NNE,6.9,-,N/A,,Overcast,30,2013-01-12 04:53:00
10:53 PM,1.0,-5.1,75,30.14,4.0,SW,4.6,-,0.00,Snow,Light Snow,230,2013-01-12 05:53:00
11:22 PM,-0.4,-5.8,78,29.88,6.0,SSW,5.8,-,0.00,,Haze,210,2013-01-12 06:22:00
11:36 PM,-0.4,-5.8,78,29.89,10.0,SW,5.8,-,0.00,,Scattered Clouds,220,2013-01-12 06:36:00
11:53 PM,-0.9,-6.0,79,30.16,10.0,SW,6.9,-,0.00,,Clear,220,2013-01-12 06:53:00